Waupaca, WI

9:21 PM CST on November 14, 2019 (GMT -0600)
Waupaca Municipal

Weather History for KPCZ - September, 2019

Change the Weather History Date:

Thursday, September 19, 2019

  Actual Average Record
Temperature  
Mean Temperature 71 °F -  
Max Temperature 78 °F 70 °F 85 °F (1985)
Min Temperature 64 °F 48 °F 32 °F (2012)
Cooling Degree Days 6    
Growing Degree Days 21 (Base 50)    
Moisture  
Dew Point 67 °F    
Average Humidity 87    
Maximum Humidity 98    
Minimum Humidity 66    
Precipitation  
Precipitation 0.09 in - - ()
Sea Level Pressure  
Sea Level Pressure 30.05 in    
Wind  
Wind Speed 6 mph (SSE)    
Max Wind Speed 10 mph    
Max Gust Speed 16 mph    
Visibility 8 miles    
Events Fog , Rain    
Averages and records for this station are not official NWS values.
T = Trace of Precipitation, MM = Missing Value Source: NWS Daily Summary

Daily Weather History Graph

Daily Weather History Graph

Search for Another Location

Airport or City:

Astronomy

Sep. 19, 2019 Rise Set
Actual Time 6:39 AM CDT 6:59 PM CDT
Civil Twilight 6:10 AM CDT 7:28 PM CDT
Nautical Twilight 5:36 AM CDT 8:02 PM CDT
Astronomical Twilight 5:00 AM CDT 8:37 PM CDT
Moon 9:57 PM CDT (9/19) 11:53 AM CDT (9/19)
Length of Visible Light 13h 18m
Length of Day
12h 20m
Waning Gibbous, 74% of the Moon is Illuminated
Sep 19
Waning Gibbous
Sep 21
Last Quarter
Sep 28
New
Oct 5
First Quarter
Oct 13
Full

Hourly Weather History & Observations

Time (CDT) Temp. Dew Point Humidity Pressure Visibility Wind Dir Wind Speed Gust Speed Precip Events Conditions
12:35 AM 72.1 °F 66.4 °F 82% 30.02 in 10.0 mi South 8.1 mph - N/A   Mostly Cloudy
12:55 AM 72.1 °F 66.6 °F 83% 30.02 in 10.0 mi South 8.1 mph - N/A   Mostly Cloudy
1:15 AM 72.0 °F 66.7 °F 84% 30.02 in 10.0 mi South 8.1 mph - N/A   Overcast
1:35 AM 72.0 °F 66.9 °F 84% 30.02 in 10.0 mi South 9.2 mph - N/A   Mostly Cloudy
1:55 AM 72.1 °F 66.4 °F 82% 30.02 in 10.0 mi South 10.4 mph 16.1 mph N/A   Mostly Cloudy
2:15 AM 72.0 °F 66.6 °F 83% 30.01 in 10.0 mi South 9.2 mph - N/A   Scattered Clouds
2:35 AM 71.1 °F 66.4 °F 85% 30.01 in 10.0 mi South 10.4 mph - N/A   Scattered Clouds
2:55 AM 71.1 °F 66.4 °F 85% 30.01 in 10.0 mi South 8.1 mph - N/A   Scattered Clouds
3:15 AM 70.2 °F 66.2 °F 87% 30.00 in 10.0 mi South 6.9 mph - N/A   Scattered Clouds
3:35 AM 69.4 °F 65.7 °F 88% 30.00 in 10.0 mi South 5.8 mph - N/A   Scattered Clouds
3:55 AM 69.3 °F 65.5 °F 88% 30.00 in 10.0 mi South 6.9 mph - N/A   Scattered Clouds
4:15 AM 69.3 °F 65.3 °F 87% 29.99 in 10.0 mi South 8.1 mph - N/A   Scattered Clouds
4:35 AM 69.8 °F 64.8 °F 84% 29.99 in 10.0 mi South 9.2 mph - N/A   Clear
4:55 AM 70.0 °F 64.4 °F 82% 30.00 in 10.0 mi South 6.9 mph - N/A   Scattered Clouds
5:15 AM 70.2 °F 64.6 °F 82% 30.01 in 10.0 mi WSW 5.8 mph - N/A   Mostly Cloudy
5:35 AM 70.5 °F 65.1 °F 83% 30.01 in 10.0 mi South 4.6 mph - N/A   Mostly Cloudy
5:55 AM 70.0 °F 65.1 °F 85% 30.01 in 10.0 mi South 3.5 mph - N/A   Scattered Clouds
6:15 AM 69.3 °F 65.3 °F 87% 30.01 in 10.0 mi ESE 4.6 mph - N/A   Scattered Clouds
6:35 AM 69.3 °F 65.8 °F 89% 30.02 in 10.0 mi ESE 4.6 mph - N/A Rain Light Rain
6:55 AM 68.4 °F 65.7 °F 91% 30.03 in 10.0 mi SE 3.5 mph - N/A Rain Light Rain
7:15 AM 68.4 °F 66.2 °F 93% 30.04 in 10.0 mi SE 4.6 mph - N/A   Mostly Cloudy
7:35 AM 68.4 °F 66.4 °F 93% 30.04 in 7.0 mi Calm Calm - N/A Rain Light Rain
7:55 AM 68.4 °F 66.6 °F 94% 30.06 in 10.0 mi Calm Calm - N/A   Light Drizzle
8:15 AM 68.4 °F 66.7 °F 95% 30.06 in 7.0 mi Calm Calm - N/A   Scattered Clouds
9:15 AM 68.4 °F 67.1 °F 96% 30.09 in 5.0 mi SSE 3.5 mph - N/A Rain Light Rain
9:35 AM 68.2 °F 66.9 °F 96% 30.10 in 7.0 mi Calm Calm - N/A Rain Light Rain
9:55 AM 68.4 °F 67.1 °F 96% 30.10 in 7.0 mi South 3.5 mph - 0.01 in Rain Light Rain
10:15 AM 68.5 °F 67.3 °F 96% 30.09 in 10.0 mi Calm Calm - N/A   Overcast
10:35 AM 69.3 °F 68.0 °F 96% 30.10 in 7.0 mi SSE 5.8 mph - N/A   Light Drizzle
10:55 AM 69.3 °F 68.0 °F 96% 30.10 in 5.0 mi SE 4.6 mph - N/A Rain Light Rain
11:15 AM 69.3 °F 68.0 °F 96% 30.10 in 5.0 mi SSE 4.6 mph - 0.01 in   Drizzle
11:35 AM 69.3 °F 68.0 °F 96% 30.11 in 5.0 mi SE 5.8 mph - 0.03 in Rain Light Rain
11:55 AM 69.3 °F 68.2 °F 96% 30.10 in 3.0 mi East 5.8 mph - 0.07 in Rain Rain
12:15 PM 69.6 °F 68.5 °F 96% 30.08 in 4.0 mi East 4.6 mph - 0.01 in   Light Drizzle
12:35 PM 70.0 °F 69.1 °F 97% 30.08 in 5.0 mi SE 3.5 mph - 0.01 in   Light Drizzle
12:55 PM 70.5 °F 69.4 °F 96% 30.06 in 7.0 mi ESE 3.5 mph - 0.01 in   Scattered Clouds
1:15 PM 71.6 °F 70.3 °F 96% 30.05 in 10.0 mi ESE 5.8 mph - N/A   Scattered Clouds
1:35 PM 73.0 °F 69.8 °F 90% 30.03 in 10.0 mi SE 6.9 mph - N/A   Scattered Clouds
1:55 PM 75.2 °F 69.4 °F 82% 30.03 in 10.0 mi South 8.1 mph - N/A   Clear
2:15 PM 74.5 °F 68.9 °F 83% 30.04 in 10.0 mi South 9.2 mph - N/A   Mostly Cloudy
2:35 PM 75.4 °F 68.4 °F 79% 30.03 in 10.0 mi South 8.1 mph - N/A   Overcast
2:55 PM 75.2 °F 68.2 °F 79% 30.03 in 10.0 mi SSW 8.1 mph - N/A   Overcast
3:15 PM 76.3 °F 67.1 °F 73% 30.03 in 10.0 mi SSW 8.1 mph - N/A   Mostly Cloudy
3:35 PM 76.1 °F 66.7 °F 73% 30.03 in 10.0 mi SSW 4.6 mph - N/A   Overcast
3:55 PM 76.3 °F 66.2 °F 71% 30.03 in 10.0 mi SSW 8.1 mph - N/A   Overcast
4:15 PM 78.1 °F 66.6 °F 68% 30.04 in 10.0 mi South 5.8 mph - N/A   Overcast
4:35 PM 78.1 °F 66.0 °F 66% 30.03 in 10.0 mi South 5.8 mph - N/A   Scattered Clouds
4:55 PM 76.3 °F 66.6 °F 72% 30.03 in 10.0 mi SE 3.5 mph - N/A   Scattered Clouds
5:15 PM 78.1 °F 66.2 °F 67% 30.03 in 10.0 mi South 6.9 mph - N/A   Mostly Cloudy
5:35 PM 77.9 °F 66.6 °F 68% 30.04 in 10.0 mi South 5.8 mph - N/A   Scattered Clouds
5:55 PM 76.1 °F 67.1 °F 74% 30.04 in 10.0 mi SSE 5.8 mph - N/A   Scattered Clouds
6:15 PM 76.3 °F 66.6 °F 72% 30.05 in 10.0 mi SSE 3.5 mph - N/A   Scattered Clouds
6:35 PM 75.0 °F 67.3 °F 77% 30.05 in 10.0 mi SSE 3.5 mph - N/A   Clear
6:55 PM 73.4 °F 67.1 °F 81% 30.05 in 10.0 mi Calm Calm - N/A   Clear
7:15 PM 72.0 °F 67.1 °F 85% 30.05 in 10.0 mi Calm Calm - N/A   Clear
7:35 PM 70.2 °F 67.6 °F 92% 30.06 in 10.0 mi Calm Calm - N/A   Clear
7:55 PM 69.3 °F 67.6 °F 95% 30.06 in 10.0 mi Calm Calm - N/A   Clear
8:15 PM 68.4 °F 66.7 °F 95% 30.06 in 10.0 mi Calm Calm - N/A   Clear
8:35 PM 67.5 °F 65.8 °F 95% 30.08 in 10.0 mi Calm Calm - N/A   Clear
8:55 PM 67.5 °F 66.4 °F 96% 30.08 in 7.0 mi Calm Calm - N/A   Clear
9:15 PM 67.3 °F 66.2 °F 96% 30.08 in 2.5 mi Calm Calm - N/A   Clear
9:35 PM 66.4 °F 65.5 °F 97% 30.08 in 4.0 mi Calm Calm - N/A   Scattered Clouds
9:55 PM 65.7 °F 64.8 °F 97% 30.08 in 7.0 mi Calm Calm - N/A   Clear
10:15 PM 65.3 °F 64.4 °F 97% 30.08 in 7.0 mi Calm Calm - N/A   Clear
10:35 PM 64.4 °F 63.5 °F 97% 30.08 in 7.0 mi Calm Calm - N/A   Clear
10:55 PM 64.4 °F 63.7 °F 98% 30.08 in 1.2 mi Calm Calm - N/A   Mist
11:15 PM 64.2 °F 63.5 °F 98% 30.09 in 1.5 mi Calm Calm - N/A   Mostly Cloudy
11:35 PM 64.8 °F 64.0 °F 98% 30.08 in 0.5 mi Calm Calm - N/A Fog Fog
11:55 PM 64.0 °F 63.5 °F 98% 30.08 in 0.2 mi Calm Calm - N/A Fog Fog